Tracking 19219 objects as of 20-Jul-2018
HD Live streaming from Space Station
objects crossing your sky now

FENGYUN 1C DEB

Track FENGYUN 1C DEB now!
10-day predictions


NORAD ID: 31092
Int'l Code: 1999-025BGN
Perigee: 857.0 km
Apogee: 1,369.4 km
Inclination: 99.5 °
Period: 107.4 minutes
Semi major axis: 7484 km
RCS: 0.0082 m2 (small)
Launch date: May 10, 1999
Source: People's Republic of China (PRC)
Launch site: Taiyaun Space Center, China (TSC)

Note: This is SATELLITE DEBRIS
aabbcc
Your satellite tracking list
Your tracking list is empty




NASA's NSSDC Master Catalog

Two Line Element Set (TLE):
1 31092U 99025BGN 18200.03843517  .00000235  00000-0  35749-3 0  9993
2 31092  99.5378  46.5685 0342307 319.1491  38.4434 13.40862783556799
Source of the keplerian elements: AFSPC